Location: Krasnoyarskiy Pitomnik
(51.1333°N, 71.6167°E)
Time: 13:46:55
(UTC+00:00)

Transit 2A - Pass Details

Date: 14 April 2024
Orbit: 594 x 958 km, 66.7° (Epoch: 27 May)

Event Time Altitude Azimuth Distance (km) Brightness Sun altitude
Rises 10:14:08 0° 323° (NW) 3,134 9.2 34.6°
Reaches altitude 10° 10:16:32 10° 331° (NNW) 2,267 8.5 34.2°
Maximum altitude 10:21:28 41° 41° (NE) 1,150 6.9 33.6°
Drops below altitude 10° 10:26:53 10° 111° (ESE) 2,492 8.4 32.8°
Sets 10:29:37 0° 119° (ESE) 3,480 9.1 32.5°
